CW2157 Weather Reports


time (UTC)temp
F
wind
direction
speed
knots
gust
knots
rain 1hr
in
rain 24hr
in
rain mn
in
humidity
%
barometer
mb
20260509154205 69 214 11.3 17.4 0.00 0.00 0.00 62 1009.3
20260509153705 69 197 8.7 14.8 0.00 0.00 0.00 62 1009.4
20260509153205 69 167 8.7 12.2 0.00 0.00 0.00 63 1009.6
20260509152705 68 8 9.6 15.6 0.00 0.00 0.00 64 1009.7
20260509152205 69 58 11.3 17.4 0.00 0.00 0.00 62 1009.7
20260509151705 69 121 10.4 14.8 0.00 0.00 0.00 63 1009.7
20260509151204 69 220 12.2 17.4 0.00 0.00 0.00 63 1009.9
20260509150705 69 226 10.4 17.4 0.00 0.00 0.00 62 1010.0
20260509150205 68 208 13.9 17.4 0.00 0.00 0.00 63 1010.2
20260509145205 68 219 12.2 17.4 0.00 0.00 0.00 64 1010.4
20260509144705 67 191 11.3 15.6 0.00 0.00 0.00 65 1010.4
20260509144205 67 212 11.3 17.4 0.00 0.00 0.00 65 1010.3
20260509143205 67 230 10.4 15.6 0.00 0.00 0.00 66 1010.3
20260509142705 66 193 8.7 13.9 0.00 0.00 0.00 68 1010.4
20260509141205 65 211 10.4 14.8 0.00 0.00 0.00 68 1010.6
20260509140705 65 200 11.3 15.6 0.00 0.00 0.00 69 1010.5
20260509140205 65 194 9.6 13.9 0.00 0.00 0.00 69 1010.5
20260509135705 65 188 10.4 17.4 0.00 0.00 0.00 69 1010.5
20260509135205 65 195 9.6 13.9 0.00 0.00 0.00 69 1010.6
20260509134205 65 209 8.7 15.6 0.00 0.00 0.00 69 1010.6
20260509133705 65 192 8.7 14.8 0.00 0.00 0.00 70 1010.5
20260509133205 65 198 10.4 17.4 0.00 0.00 0.00 69 1010.6
20260509132705 65 183 8.7 14.8 0.00 0.00 0.00 70 1010.6
20260509132205 65 204 11.3 17.4 0.00 0.00 0.00 70 1010.8
20260509131705 65 255 11.3 17.4 0.00 0.00 0.00 71 1010.7
20260509131205 65 213 8.7 17.4 0.00 0.00 0.00 70 1010.6
20260509130705 65 212 12.2 17.4 0.00 0.00 0.00 70 1010.7
20260509130205 65 179 11.3 17.4 0.00 0.00 0.00 71 1010.7
20260509125204 65 216 11.3 14.8 0.00 0.00 0.00 71 1010.7
20260509124705 65 201 11.3 21.7 0.00 0.00 0.00 70 1010.7
20260509124205 64 172 12.2 19.1 0.00 0.00 0.00 71 1010.7
20260509123705 64 215 10.4 14.8 0.00 0.00 0.00 71 1010.7
20260509123205 64 199 11.3 15.6 0.00 0.00 0.00 72 1010.7
20260509122705 63 209 11.3 17.4 0.00 0.00 0.00 74 1010.7
20260509121205 62 203 13.0 18.2 0.00 0.00 0.00 75 1010.8
20260509120705 62 208 11.3 17.4 0.00 0.00 0.00 75 1010.8
20260509120205 62 214 12.2 17.4 0.00 0.00 0.00 76 1010.8
20260509115705 61 207 11.3 17.4 0.00 0.00 0.00 76 1010.7
20260509115205 61 42 8.7 17.4 0.00 0.00 0.00 75 1010.7
20260509114705 61 208 10.4 17.4 0.00 0.00 0.00 76 1010.8
20260509113705 61 205 11.3 15.6 0.00 0.00 0.00 77 1010.7
20260509113204 61 214 11.3 14.8 0.00 0.00 0.00 77 1010.7
20260509112704 60 190 10.4 19.1 0.00 0.00 0.00 78 1010.7
20260509111705 60 194 11.3 19.1 0.00 0.00 0.00 78 1010.7
20260509111205 60 213 11.3 19.1 0.00 0.00 0.00 78 1010.8
20260509110705 60 156 12.2 17.4 0.00 0.00 0.00 79 1010.8
20260509110205 60 294 13.0 19.1 0.00 0.00 0.00 79 1010.7
20260509105705 60 176 10.4 19.1 0.00 0.00 0.00 79 1010.8
20260509105205 60 189 10.4 17.4 0.00 0.00 0.00 79 1010.8
20260509104705 60 206 11.3 17.4 0.00 0.00 0.00 79 1010.8
20260509104205 60 208 11.3 17.4 0.00 0.00 0.00 80 1010.7
20260509103705 60 166 11.3 20.9 0.00 0.00 0.00 79 1010.6
20260509103206 60 193 10.4 17.4 0.00 0.00 0.00 79 1010.5
20260509102704 60 108 11.3 17.4 0.00 0.00 0.00 79 1010.6
20260509102205 60 178 10.4 17.4 0.00 0.00 0.00 79 1010.7
20260509101704 60 176 11.3 19.1 0.00 0.00 0.00 78 1010.7
20260509101205 60 173 7.8 17.4 0.00 0.00 0.00 78 1010.5
20260509100704 60 175 10.4 17.4 0.00 0.00 0.00 78 1010.5
20260509095705 60 196 9.6 17.4 0.00 0.00 0.00 78 1010.5
20260509095205 60 181 7.8 15.6 0.00 0.00 0.00 78 1010.5
20260509094705 60 212 8.7 13.9 0.00 0.00 0.00 77 1010.5
20260509094204 60 274 8.7 13.9 0.00 0.00 0.00 77 1010.4
20260509093705 60 177 9.6 13.0 0.00 0.00 0.00 77 1010.3
20260509092705 60 168 7.8 14.8 0.00 0.00 0.00 77 1010.5
20260509092205 60 173 7.8 13.0 0.00 0.00 0.00 77 1010.5
20260509091705 60 194 7.8 12.2 0.00 0.00 0.00 76 1010.5
20260509091205 60 192 8.7 17.4 0.00 0.00 0.00 77 1010.5
20260509090705 60 228 9.6 13.9 0.00 0.00 0.00 77 1010.4
20260509090205 60 281 10.4 14.8 0.00 0.00 0.00 77 1010.4
20260509085705 60 15 10.4 14.8 0.00 0.00 0.00 76 1010.4
20260509085205 60 336 8.7 14.8 0.00 0.00 0.00 77 1010.4
20260509084705 60 176 8.7 14.8 0.00 0.00 0.00 77 1010.5
20260509084205 60 191 8.7 14.8 0.00 0.00 0.00 76 1010.5
20260509083705 60 214 8.7 11.3 0.00 0.00 0.00 76 1010.6
20260509083205 60 177 7.8 12.2 0.00 0.00 0.00 76 1010.5
20260509082704 61 214 7.8 13.0 0.00 0.00 0.00 76 1010.6
20260509081204 61 190 9.6 14.8 0.00 0.00 0.00 76 1010.6
20260509080704 61 199 10.4 14.8 0.00 0.00 0.00 76 1010.7
20260509080205 61 201 8.7 15.6 0.00 0.00 0.00 75 1010.8
20260509075705 61 186 7.8 17.4 0.00 0.00 0.00 75 1010.8
20260509075204 61 178 10.4 17.4 0.00 0.00 0.00 76 1010.8
20260509074705 61 180 7.0 12.2 0.00 0.00 0.00 76 1010.7
20260509074204 61 192 8.7 12.2 0.00 0.00 0.00 75 1010.6
20260509073704 60 192 7.8 17.4 0.00 0.00 0.00 75 1010.8
20260509072704 60 15 8.7 13.9 0.00 0.00 0.00 75 1010.8
20260509072204 60 174 10.4 13.9 0.00 0.00 0.00 76 1010.9
20260509071705 60 157 10.4 15.6 0.00 0.00 0.00 76 1011.0
20260509071205 60 172 8.7 13.0 0.00 0.00 0.00 76 1011.0
20260509070205 60 215 7.8 13.9 0.00 0.00 0.00 76 1011.0
20260509065705 60 204 8.7 15.6 0.00 0.00 0.00 76 1011.0
20260509065205 60 191 9.6 13.9 0.00 0.00 0.00 76 1011.1
20260509064205 60 199 10.4 15.6 0.00 0.00 0.00 76 1011.1
20260509063705 60 180 13.0 18.2 0.00 0.00 0.00 75 1011.1
20260509063205 60 183 10.4 15.6 0.00 0.00 0.00 75 1011.2
20260509062705 60 182 10.4 17.4 0.00 0.00 0.00 75 1011.2
20260509062205 60 270 10.4 17.4 0.00 0.00 0.00 75 1011.3
20260509061705 60 238 12.2 17.4 0.00 0.00 0.00 76 1011.3
20260509061204 60 205 9.6 14.8 0.00 0.00 0.00 76 1011.2
20260509060704 60 204 9.6 15.6 0.00 0.00 0.00 76 1011.2
20260509060204 60 204 8.7 13.9 0.00 0.00 0.00 76 1011.3
20260509055704 60 198 10.4 17.4 0.00 0.00 0.00 75 1011.4
20260509055204 60 198 9.6 14.8 0.00 0.00 0.00 75 1011.3
20260509054704 60 223 10.4 15.6 0.00 0.00 0.00 75 1011.3
20260509053705 60 294 10.4 14.8 0.00 0.00 0.00 76 1011.4
20260509053204 60 172 9.6 17.4 0.00 0.00 0.00 76 1011.5
20260509052705 60 188 10.4 15.6 0.00 0.00 0.00 76 1011.4
20260509052205 60 215 8.7 13.9 0.00 0.00 0.00 77 1011.4
20260509051705 60 192 9.6 19.1 0.00 0.00 0.00 76 1011.4
20260509050705 60 196 7.8 15.6 0.00 0.00 0.00 76 1011.4
20260509050205 60 194 9.6 18.2 0.00 0.00 0.00 76 1011.5
20260509045705 60 227 10.4 15.6 0.00 0.00 0.00 75 1011.4
20260509045205 60 220 8.7 15.6 0.00 0.00 0.00 75 1011.5
20260509044705 60 185 8.7 15.6 0.00 0.00 0.00 75 1011.4
20260509044205 60 191 9.6 19.1 0.00 0.00 0.00 74 1011.5
20260509042704 60 246 9.6 17.4 0.00 0.00 0.00 73 1011.5
20260509042205 60 212 11.3 17.4 0.00 0.00 0.00 73 1011.5
20260509041704 60 199 9.6 17.4 0.00 0.00 0.00 74 1011.5
20260509041204 60 188 9.6 12.2 0.00 0.00 0.00 74 1011.6
20260509040704 60 181 10.4 14.8 0.00 0.00 0.00 75 1011.7
20260509035705 60 190 8.7 17.4 0.00 0.00 0.00 75 1011.8
20260509035205 60 177 8.7 14.8 0.00 0.00 0.00 74 1011.9
20260509034204 60 202 7.8 14.8 0.00 0.00 0.00 74 1011.8
20260509033705 60 191 8.7 13.0 0.00 0.00 0.00 74 1011.7
20260509033205 60 210 8.7 14.8 0.00 0.00 0.00 74 1011.7
20260509032205 60 178 9.6 14.8 0.00 0.00 0.00 73 1011.8
20260509031705 60 194 10.4 14.8 0.00 0.00 0.00 73 1012.0
20260509031204 60 184 7.8 13.9 0.00 0.00 0.00 72 1012.0
20260509030705 60 190 7.8 13.9 0.00 0.00 0.00 71 1012.0
20260509024705 61 192 9.6 14.8 0.00 0.00 0.00 69 1011.8
20260509023705 61 181 10.4 17.4 0.00 0.00 0.00 69 1011.7
20260509023205 61 190 10.4 15.6 0.00 0.00 0.00 69 1011.8
20260509022704 61 213 10.4 15.6 0.00 0.00 0.00 68 1011.7
20260509022205 61 183 7.8 17.4 0.00 0.00 0.00 68 1011.7
20260509021705 61 181 10.4 15.6 0.00 0.00 0.00 68 1011.7
20260509021204 61 196 8.7 14.8 0.00 0.00 0.00 68 1011.8
20260509020205 61 197 8.7 12.2 0.00 0.00 0.00 67 1011.8
20260509015205 61 206 8.7 13.9 0.00 0.00 0.00 66 1011.8
20260509014205 61 188 9.6 15.6 0.00 0.00 0.00 66 1011.7
20260509013705 61 195 8.7 14.8 0.00 0.00 0.00 66 1011.7
20260509013205 61 193 8.7 12.2 0.00 0.00 0.00 66 1011.7
20260509012205 61 191 9.6 14.8 0.00 0.00 0.00 65 1011.7
20260509011205 62 223 8.7 14.8 0.00 0.00 0.00 65 1011.5
20260509010704 62 196 8.7 14.8 0.00 0.00 0.00 64 1011.5
20260509010204 62 191 9.6 15.6 0.00 0.00 0.00 64 1011.4
20260509005704 62 195 8.7 14.8 0.00 0.00 0.00 63 1011.4
20260509005204 62 193 8.7 17.4 0.00 0.00 0.00 64 1011.3
20260509004704 62 174 8.7 14.8 0.00 0.00 0.00 63 1011.2
20260509004204 62 184 8.7 17.4 0.00 0.00 0.00 62 1011.2
20260509003704 62 186 7.8 15.6 0.00 0.00 0.00 62 1011.2
20260509003204 62 204 11.3 18.2 0.00 0.00 0.00 62 1011.0
20260509002204 62 195 7.8 13.0 0.00 0.00 0.00 61 1011.0
20260509001704 62 184 7.8 13.0 0.00 0.00 0.00 61 1010.9
20260509000704 63 211 6.1 13.0 0.00 0.00 0.00 59 1010.9
20260509000204 63 183 7.8 13.9 0.00 0.00 0.00 59 1010.9
20260508235704 63 192 7.8 14.8 0.00 0.00 0.00 59 1010.8
20260508234704 63 186 7.8 13.0 0.00 0.00 0.00 57 1010.8
20260508234204 63 195 6.1 12.2 0.00 0.00 0.00 58 1010.8
20260508233704 63 189 7.8 15.6 0.00 0.00 0.00 56 1010.7
20260508232705 63 199 10.4 17.4 0.00 0.00 0.00 54 1010.7
20260508232204 63 193 8.7 14.8 0.00 0.00 0.00 54 1010.7
20260508231204 63 198 9.6 14.8 0.00 0.00 0.00 53 1010.7
20260508230704 64 178 11.3 17.4 0.00 0.00 0.00 52 1010.6
20260508230205 64 196 8.7 14.8 0.00 0.00 0.00 54 1010.7
20260508225704 64 200 8.7 13.9 0.00 0.00 0.00 53 1010.6
20260508225204 64 196 11.3 15.6 0.00 0.00 0.00 51 1010.7
20260508224704 64 194 11.3 17.4 0.00 0.00 0.00 52 1010.6
20260508224205 64 188 10.4 17.4 0.00 0.00 0.00 51 1010.6
20260508223704 64 194 10.4 20.0 0.00 0.00 0.00 53 1010.5
20260508223204 64 204 11.3 20.0 0.00 0.00 0.00 52 1010.5
20260508222704 65 183 11.3 20.9 0.00 0.00 0.00 51 1010.5
20260508222204 65 194 12.2 18.2 0.00 0.00 0.00 51 1010.6
20260508221704 65 187 12.2 19.1 0.00 0.00 0.00 51 1010.6
20260508221205 65 203 10.4 17.4 0.00 0.00 0.00 51 1010.5
20260508220704 66 187 11.3 17.4 0.00 0.00 0.00 53 1010.4
20260508220204 66 199 12.2 18.2 0.00 0.00 0.00 51 1010.6
20260508215704 66 206 11.3 15.6 0.00 0.00 0.00 50 1010.4
20260508215204 67 218 11.3 17.4 0.00 0.00 0.00 51 1010.5
20260508214704 67 202 10.4 15.6 0.00 0.00 0.00 49 1010.5
20260508214204 68 205 11.3 17.4 0.00 0.00 0.00 51 1010.4
20260508213704 68 187 10.4 17.4 0.00 0.00 0.00 51 1010.4
20260508213204 68 190 11.3 18.2 0.00 0.00 0.00 49 1010.4
20260508212704 68 189 9.6 14.8 0.00 0.00 0.00 49 1010.4
20260508212204 68 186 11.3 19.1 0.00 0.00 0.00 50 1010.4
20260508211205 68 194 10.4 17.4 0.00 0.00 0.00 49 1010.5
20260508210705 68 192 11.3 18.2 0.00 0.00 0.00 45 1010.5
20260508210205 68 194 12.2 17.4 0.00 0.00 0.00 46 1010.5
20260508205704 68 199 11.3 17.4 0.00 0.00 0.00 49 1010.6
20260508205204 68 202 11.3 14.8 0.00 0.00 0.00 47 1010.7
20260508204704 68 203 9.6 14.8 0.00 0.00 0.00 48 1010.7
20260508203704 68 209 13.9 22.6 0.00 0.00 0.00 45 1010.7
20260508203204 68 194 12.2 18.2 0.00 0.00 0.00 48 1010.7
20260508202704 68 198 11.3 18.2 0.00 0.00 0.00 46 1010.8
20260508202204 68 195 13.9 20.0 0.00 0.00 0.00 48 1010.9
20260508201704 68 187 13.0 19.1 0.00 0.00 0.00 47 1011.0
20260508201205 69 203 12.2 20.9 0.00 0.00 0.00 48 1011.0
20260508200704 69 187 10.4 17.4 0.00 0.00 0.00 50 1011.2
20260508200204 69 194 11.3 20.0 0.00 0.00 0.00 49 1011.3
20260508195704 69 191 11.3 17.4 0.00 0.00 0.00 49 1011.3
20260508195204 69 198 10.4 18.2 0.00 0.00 0.00 49 1011.4
20260508194705 68 206 10.4 17.4 0.00 0.00 0.00 48 1011.4
20260508194204 68 203 10.4 13.0 0.00 0.00 0.00 49 1011.5
20260508193704 68 195 11.3 19.1 0.00 0.00 0.00 46 1011.4
20260508193204 68 190 12.2 17.4 0.00 0.00 0.00 48 1011.5
20260508192204 68 203 12.2 17.4 0.00 0.00 0.00 51 1011.6
20260508191704 68 198 8.7 15.6 0.00 0.00 0.00 48 1011.7
20260508191205 68 199 12.2 19.1 0.00 0.00 0.00 43 1011.8
20260508185205 67 200 11.3 20.9 0.00 0.00 0.00 47 1012.1
20260508184704 67 206 11.3 18.2 0.00 0.00 0.00 47 1012.1
20260508184204 67 188 11.3 19.1 0.00 0.00 0.00 47 1012.1
20260508183704 67 203 11.3 17.4 0.00 0.00 0.00 46 1012.2
20260508183204 67 205 12.2 17.4 0.00 0.00 0.00 48 1012.2
20260508182204 67 198 12.2 17.4 0.00 0.00 0.00 47 1012.2
20260508181705 67 205 13.0 25.2 0.00 0.00 0.00 50 1012.3
20260508181204 67 198 13.0 19.1 0.00 0.00 0.00 46 1012.3
20260508180704 67 203 12.2 18.2 0.00 0.00 0.00 46 1012.4
20260508180204 67 202 13.9 20.0 0.00 0.00 0.00 46 1012.3
20260508174204 67 192 11.3 17.4 0.00 0.00 0.00 44 1012.4
20260508173704 67 208 11.3 15.6 0.00 0.00 0.00 46 1012.6
20260508173204 66 186 11.3 15.6 0.00 0.00 0.00 45 1012.6
20260508172704 66 185 10.4 15.6 0.00 0.00 0.00 42 1012.7
20260508171704 66 196 8.7 13.9 0.00 0.00 0.00 44 1012.9
20260508171205 66 192 11.3 17.4 0.00 0.00 0.00 44 1013.0
20260508170704 65 200 12.2 17.4 0.00 0.00 0.00 45 1013.0
20260508170204 65 200 7.0 12.2 0.00 0.00 0.00 42 1013.0
20260508165704 65 164 8.7 15.6 0.00 0.00 0.00 45 1013.1
20260508165204 65 209 9.6 15.6 0.00 0.00 0.00 41 1013.1
20260508164704 65 179 11.3 17.4 0.00 0.00 0.00 38 1013.2
20260508163704 65 193 7.0 11.3 0.00 0.00 0.00 43 1013.2
20260508163204 65 182 10.4 15.6 0.00 0.00 0.00 42 1013.3
20260508162704 65 198 7.0 13.9 0.00 0.00 0.00 43 1013.4
20260508161704 65 156 7.0 11.3 0.00 0.00 0.00 44 1013.5
20260508161204 65 189 7.8 12.2 0.00 0.00 0.00 44 1013.5
20260508160204 65 178 6.1 11.3 0.00 0.00 0.00 44 1013.7
20260508155705 65 180 8.7 14.8 0.00 0.00 0.00 42 1013.7
20260508155204 66 203 7.8 12.2 0.00 0.00 0.00 44 1013.7
20260508154704 66 197 9.6 12.2 0.00 0.00 0.00 44 1013.6